Regional Weather Roundup
Issued by NWS

Home | Current Version | Previous Version | Text Only | Print | Product List | Glossary On
Versions: 1 2 3 4 5 6 7 8 9 10 11 12 13 14 15 16 17 18 19 20 21 22 23 24 25 26 27 28 29 30 31 32 33 34 35 36 37 38 39 40 41 42 43 44 45 46 47 48 49 50
000
ASUS43 KLSX 282107
RWRMO

WEATHER SUMMARY FOR MISSOURI
NATIONAL WEATHER SERVICE SPRINGFIELD MO
300 PM CST WED JAN 28 2015

NOTE: "FAIR" INDICATES FEW OR NO CLOUDS BELOW 12,000 FEET WITH NO
       SIGNIFICANT WEATHER AND/OR OBSTRUCTIONS TO VISIBILITY.
       CURRENT SKY AND/OR WEATHER CONDITIONS ARE NOT AVAILABLE FOR
       CHILLICOTHE AND FARMINGTON.

MOZ001>031-035>038-043-044-053-054-282200-
...NORTHERN AND WESTERN MISSOURI...

CITY           SKY/WX    TMP DP  RH WIND       PRES   REMARKS
KANSAS CTY INT CLOUDY    72  38  29 S17G29    29.71F
KANSAS C DTWN  FAIR      75  37  25 S21G28    29.73F
LEE`S SUMMIT   FAIR      73  38  27 S14G26    29.75F
ST JOSEPH      FAIR      72  38  29 S21G26    29.68F
CHILLICOTHE      N/A     64  40  41 S12G21    29.77F
KIRKSVILLE     FAIR      50  38  63 SE20      29.82F

$$
MOZ066>068-077>081-088>096-101>105-282200-
...SOUTHWEST MISSOURI...

CITY           SKY/WX    TMP DP  RH WIND       PRES   REMARKS
SPRINGFIELD    FAIR      65  37  35 MISG      29.89F
JOPLIN         FAIR      74  37  26 S21G29    29.84F

$$
MOZ032>034-039>042-045>050-055>058-069>072-282200-
...CENTRAL MISSOURI...

CITY           SKY/WX    TMP DP  RH WIND       PRES   REMARKS
COLUMBIA       FAIR      60  37  42 S22       29.88F
JEFFERSON CITY FAIR      61  35  37 SE12G23   29.89F
ROLLA          FAIR      55  34  45 S21G29    29.93F
SEDALIA        FAIR      68  39  34 S20       29.83F
WHITEMAN AFB   MOSUNNY   68  41  36 S22       29.79F
WARRENSBURG    FAIR      70  37  30 S14G22    29.78F
OSAGE BEACH    FAIR      61  36  39 S17G23    29.91F

$$
MOZ051-052-059>065-282200-
...EAST CENTRAL MISSOURI...

CITY           SKY/WX    TMP DP  RH WIND       PRES   REMARKS
ST LOUIS INTL  PTSUNNY   50  31  48 SE18G28   30.02F
SPIRIT OF STL  FAIR      51  30  44 S14G21    29.99F
ST CHARLES     FAIR      47  34  60 SE21      30.01F

$$
MOZ072>076-082>087-097>100-106>115-282200-
...SOUTH CENTRAL AND SOUTHEAST MISSOURI...

CITY           SKY/WX    TMP DP  RH WIND       PRES   REMARKS
CAPE GIRARDEAU FAIR      46  35  65 SE14      30.15F
FARMINGTON     FAIR      48  30  49 S17G24    30.08F
POPLAR BLUFF   FAIR      49  35  58 S13       30.13F
WEST PLAINS    FAIR      54  33  45 SE12G21   30.04F

$$


USA.gov is the U.S. government's official web portal to all federal, state and local government web resources and services.